This is the latest recevied weather packets stored in our database for station/object WP3XM. If no packets are shown the sender has not sent any weather packets the latest 10 day(s).
| Time | Temp. | Humidity | Pressure | Rain* | Wind** | Luminosity | Snow |
|---|---|---|---|---|---|---|---|
| 1777501821 | 27.22° C | 81% | 1014.2 hPa | 0 mm | - | 5 W/m² | - |
| 1777501518 | 27.22° C | 81% | 1014.3 hPa | 0 mm | - | 6 W/m² | - |
| 1777501215 | 26.67° C | 82% | 1014.1 hPa | 0 mm | - | 9 W/m² | - |
| 1777500913 | 26.67° C | 82% | 1014.3 hPa | 0 mm | - | 13 W/m² | - |
| 1777500610 | 26.67° C | 82% | 1014.3 hPa | 0 mm | - | 15 W/m² | - |
| 1777500306 | 27.22° C | 81% | 1014 hPa | 0 mm | - | 22 W/m² | - |
| 1777500003 | 27.22° C | 82% | 1013.7 hPa | 0 mm | - | 35 W/m² | - |
| 1777499699 | 27.22° C | 81% | 1013.9 hPa | 0 mm | - | 44 W/m² | - |
| 1777499396 | 27.22° C | 81% | 1014 hPa | 0 mm | - | 55 W/m² | - |
| 1777499095 | 27.22° C | 80% | 1014 hPa | 0 mm | - | 65 W/m² | - |
| 1777498790 | 27.22° C | 79% | 1014.1 hPa | 0 mm | - | 76 W/m² | - |
| 1777498487 | 27.22° C | 79% | 1013.9 hPa | 0 mm | - | 88 W/m² | - |
| 1777498183 | 27.22° C | 79% | 1013.8 hPa | 0 mm | - | 100 W/m² | - |
| 1777497881 | 27.78° C | 78% | 1013.8 hPa | 0 mm | - | 105 W/m² | - |
| 1777497577 | 27.78° C | 78% | 1013.7 hPa | 0 mm | - | 117 W/m² | - |
| 1777497273 | 27.78° C | 78% | 1013.4 hPa | 0 mm | - | 130 W/m² | - |
| 1777496970 | 27.78° C | 78% | 1013.6 hPa | 0 mm | - | 146 W/m² | - |
| 1777496667 | 27.78° C | 77% | 1013.3 hPa | 0 mm | - | 154 W/m² | - |
| 1777496363 | 28.33° C | 78% | 1013.7 hPa | 0 mm | - | 171 W/m² | - |
| 1777496060 | 27.78° C | 78% | 1013.6 hPa | 0 mm | - | 166 W/m² | - |
| 1777495756 | 28.33° C | 77% | 1013.8 hPa | 0 mm | - | 192 W/m² | - |
| 1777495452 | 28.89° C | 76% | 1013.8 hPa | 0 mm | - | 278 W/m² | - |
| 1777495148 | 28.89° C | 75% | 1013.9 hPa | 0 mm | - | 308 W/m² | - |
| 1777494845 | 28.33° C | 77% | 1013.8 hPa | 0 mm | - | 469 W/m² | - |
| 1777494543 | 28.33° C | 78% | 1013.7 hPa | 0 mm | - | 273 W/m² | - |
* Rain latest hour (hover to see other rain measurements)
** Current wind speed in m/s (hover to see current wind gust speed)